Location: Bad Rothenbrunn
(47.2167°N, 11.2167°E)
Time: 06:00:33
(UTC+00:00)

Cosmos 2084 Rocket - Pass Details

Date: 03 March 2021
Orbit: 527 x 653 km, 62.8° (Epoch: 22 April)

Event Time Altitude Azimuth Distance (km) Brightness Sun altitude
Rises 18:23:51 0° 316° (NW) 2,808 7.8 -14.4°
Reaches altitude 10° 18:26:05 10° 312° (NW) 1,926 6.9 -14.8°
Maximum altitude 18:30:22 57° 235° (SW) 716 4.1 -15.5°
Drops below altitude 10° 18:34:47 10° 156° (SSE) 1,990 5.9 -16.3°
Enters shadow 18:34:47 10° 156° (SSE) 1,991 5.9 -16.3°
